date,time,SUV Intensity [MED/Hr],UV Index,Daily total [MED],Since Last [MED]
05/08/2023,23:59:49,0.002,0.0,4.527,4.527
06/08/2023,00:00:47,0.000,0.0,0.0,-4.527
06/08/2023,00:01:47,0.001,0.0,0.0,0.0
06/08/2023,00:02:47,0.001,0.0,0.0,0.0
06/08/2023,00:03:47,0.000,0.0,0.0,0.0
06/08/2023,00:04:48,0.001,0.0,0.0,0.0
06/08/2023,00:05:47,0.000,0.0,0.0,0.0
06/08/2023,00:06:46,0.000,0.0,0.0,0.0
06/08/2023,00:07:47,0.000,0.0,0.0,0.0
06/08/2023,00:08:47,0.000,0.0,0.0,0.0
06/08/2023,00:09:47,0.001,0.0,0.0,0.0
06/08/2023,00:10:48,0.000,0.0,0.0,0.0
06/08/2023,00:11:47,0.001,0.0,0.0,0.0
06/08/2023,00:12:45,0.001,0.0,0.0,0.0
06/08/2023,00:13:45,0.001,0.0,0.0,0.0
06/08/2023,00:14:47,0.001,0.0,0.0,0.0
06/08/2023,00:15:47,0.000,0.0,0.0,0.0
06/08/2023,00:16:47,-0.001,0.0,0.0,0.0
06/08/2023,00:17:47,0.000,0.0,0.0,0.0
06/08/2023,00:18:47,-0.000,0.0,0.0,0.0
06/08/2023,00:19:47,0.001,0.0,0.0,0.0
06/08/2023,00:20:47,0.001,0.0,0.0,0.0
06/08/2023,00:21:47,0.000,0.0,0.0,0.0
06/08/2023,00:22:47,0.001,0.0,0.0,0.0
06/08/2023,00:23:47,0.000,0.0,0.0,0.0
06/08/2023,00:24:47,0.000,0.0,0.0,0.0
06/08/2023,00:25:47,-0.000,0.0,0.0,0.0
06/08/2023,00:26:47,0.001,0.0,0.0,0.0
06/08/2023,00:27:47,0.000,0.0,0.0,0.0
06/08/2023,00:28:47,0.000,0.0,0.0,0.0
06/08/2023,00:29:47,0.000,0.0,0.0,0.0
06/08/2023,00:30:47,-0.000,0.0,0.0,0.0
06/08/2023,00:31:47,-0.001,0.0,0.0,0.0
06/08/2023,00:32:46,0.000,0.0,0.0,0.0
06/08/2023,00:33:47,0.000,0.0,0.0,0.0
06/08/2023,00:34:47,0.000,0.0,0.0,0.0
06/08/2023,00:35:47,0.000,0.0,0.0,0.0
06/08/2023,00:36:47,0.001,0.0,0.0,0.0
06/08/2023,00:37:47,0.000,0.0,0.0,0.0
06/08/2023,00:38:47,0.000,0.0,0.0,0.0
06/08/2023,00:39:47,0.001,0.0,0.0,0.0
06/08/2023,00:40:47,0.001,0.0,0.0,0.0
06/08/2023,00:41:47,-0.001,0.0,0.0,0.0
06/08/2023,00:42:47,-0.000,0.0,0.0,0.0
06/08/2023,00:43:47,-0.001,0.0,0.0,0.0
06/08/2023,00:44:48,0.000,0.0,0.0,0.0
06/08/2023,00:45:47,0.000,0.0,0.0,0.0
06/08/2023,00:46:47,0.001,0.0,0.0,0.0
06/08/2023,00:47:47,0.000,0.0,0.0,0.0
06/08/2023,00:48:47,0.001,0.0,0.0,0.0
06/08/2023,00:49:47,0.001,0.0,0.0,0.0
06/08/2023,00:50:47,0.000,0.0,0.0,0.0
06/08/2023,00:51:47,-0.001,0.0,0.0,0.0
06/08/2023,00:52:47,0.001,0.0,0.0,0.0
06/08/2023,00:53:47,0.000,0.0,0.0,0.0
06/08/2023,00:54:47,0.001,0.0,0.0,0.0
06/08/2023,00:55:47,-0.000,0.0,0.0,0.0
06/08/2023,00:56:47,0.000,0.0,0.0,0.0
06/08/2023,00:57:47,0.000,0.0,0.0,0.0
06/08/2023,00:58:47,-0.000,0.0,0.0,0.0
06/08/2023,00:59:47,-0.001,0.0,0.0,0.0
06/08/2023,01:00:47,0.000,0.0,0.0,0.0
06/08/2023,01:01:47,0.001,0.0,0.0,0.0
06/08/2023,01:02:48,0.001,0.0,0.0,0.0
06/08/2023,01:03:47,0.000,0.0,0.0,0.0
06/08/2023,01:04:47,0.001,0.0,0.0,0.0
06/08/2023,01:05:47,0.000,0.0,0.0,0.0
06/08/2023,01:06:47,0.000,0.0,0.0,0.0
06/08/2023,01:07:47,0.000,0.0,0.0,0.0
06/08/2023,01:08:47,0.001,0.0,0.0,0.0
06/08/2023,01:09:47,0.001,0.0,0.0,0.0
06/08/2023,01:10:48,0.000,0.0,0.0,0.0
06/08/2023,01:11:48,0.000,0.0,0.0,0.0
06/08/2023,01:12:48,0.000,0.0,0.0,0.0
06/08/2023,01:13:48,0.000,0.0,0.0,0.0
06/08/2023,01:14:47,0.000,0.0,0.0,0.0
06/08/2023,01:15:47,0.000,0.0,0.0,0.0
06/08/2023,01:16:47,0.000,0.0,0.0,0.0
06/08/2023,01:17:47,0.002,0.0,0.0,0.0
06/08/2023,01:18:47,0.001,0.0,0.0,0.0
06/08/2023,01:19:47,0.001,0.0,0.0,0.0
06/08/2023,01:20:47,0.001,0.0,0.0,0.0
06/08/2023,01:21:47,0.001,0.0,0.0,0.0
06/08/2023,01:22:47,0.000,0.0,0.0,0.0
06/08/2023,01:23:47,0.001,0.0,0.0,0.0
06/08/2023,01:24:47,0.000,0.0,0.0,0.0
06/08/2023,01:25:47,0.001,0.0,0.0,0.0
06/08/2023,01:26:48,-0.001,0.0,0.0,0.0
06/08/2023,01:27:47,0.000,0.0,0.0,0.0
06/08/2023,01:28:47,0.001,0.0,0.0,0.0
06/08/2023,01:29:48,0.002,0.0,0.0,0.0
06/08/2023,01:30:47,0.001,0.0,0.0,0.0
06/08/2023,01:31:47,0.000,0.0,0.0,0.0
06/08/2023,01:32:48,0.001,0.0,0.0,0.0
06/08/2023,01:33:47,0.001,0.0,0.0,0.0
06/08/2023,01:34:47,0.001,0.0,0.0,0.0
06/08/2023,01:35:47,0.001,0.0,0.0,0.0
06/08/2023,01:36:47,-0.000,0.0,0.0,0.0
06/08/2023,01:37:47,0.000,0.0,0.0,0.0
06/08/2023,01:38:47,0.000,0.0,0.0,0.0
06/08/2023,01:39:47,0.002,0.0,0.0,0.0
06/08/2023,01:40:47,0.001,0.0,0.0,0.0
06/08/2023,01:41:47,0.001,0.0,0.0,0.0
06/08/2023,01:42:47,0.001,0.0,0.0,0.0
06/08/2023,01:43:47,0.001,0.0,0.0,0.0
06/08/2023,01:44:47,0.001,0.0,0.0,0.0
06/08/2023,01:45:47,0.001,0.0,0.0,0.0
06/08/2023,01:46:47,-0.000,0.0,0.0,0.0
06/08/2023,01:47:47,0.001,0.0,0.0,0.0
06/08/2023,01:48:47,-0.000,0.0,0.0,0.0
06/08/2023,01:49:48,0.002,0.0,0.0,0.0
06/08/2023,01:50:47,-0.000,0.0,0.0,0.0
06/08/2023,01:51:47,0.000,0.0,0.0,0.0
06/08/2023,01:52:48,0.000,0.0,0.0,0.0
06/08/2023,01:53:47,-0.000,0.0,0.0,0.0
06/08/2023,01:54:47,0.000,0.0,0.0,0.0
06/08/2023,01:55:47,0.002,0.0,0.0,0.0
06/08/2023,01:56:47,-0.000,0.0,0.0,0.0
06/08/2023,01:57:47,0.001,0.0,0.0,0.0
06/08/2023,01:58:49,0.000,0.0,0.0,0.0
06/08/2023,01:59:47,0.001,0.0,0.0,0.0
06/08/2023,02:00:47,0.001,0.0,0.0,0.0
06/08/2023,02:01:47,0.001,0.0,0.0,0.0
06/08/2023,02:02:47,0.001,0.0,0.0,0.0
06/08/2023,02:03:48,0.001,0.0,0.0,0.0
06/08/2023,02:04:47,0.001,0.0,0.0,0.0
06/08/2023,02:05:48,0.002,0.0,0.0,0.0
06/08/2023,02:06:47,0.002,0.0,0.0,0.0
06/08/2023,02:07:47,0.001,0.0,0.0,0.0
06/08/2023,02:08:48,0.001,0.0,0.0,0.0
06/08/2023,02:09:47,0.002,0.0,0.0,0.0
06/08/2023,02:10:47,0.000,0.0,0.0,0.0
06/08/2023,02:11:47,0.002,0.0,0.0,0.0
06/08/2023,02:12:47,0.002,0.0,0.0,0.0
06/08/2023,02:13:48,0.001,0.0,0.0,0.0
06/08/2023,02:14:47,0.000,0.0,0.0,0.0
06/08/2023,02:15:47,0.001,0.0,0.0,0.0
06/08/2023,02:16:47,0.002,0.0,0.0,0.0
06/08/2023,02:17:47,0.000,0.0,0.0,0.0
06/08/2023,02:18:48,-0.000,0.0,0.0,0.0
06/08/2023,02:19:47,0.001,0.0,0.0,0.0
06/08/2023,02:20:47,0.000,0.0,0.0,0.0
06/08/2023,02:21:48,-0.000,0.0,0.0,0.0
06/08/2023,02:22:47,0.001,0.0,0.0,0.0
06/08/2023,02:23:48,0.001,0.0,0.0,0.0
06/08/2023,02:24:47,0.002,0.0,0.0,0.0
06/08/2023,02:25:47,0.000,0.0,0.0,0.0
06/08/2023,02:26:47,0.001,0.0,0.0,0.0
06/08/2023,02:27:47,0.001,0.0,0.0,0.0
06/08/2023,02:28:48,0.002,0.0,0.0,0.0
06/08/2023,02:29:48,0.001,0.0,0.0,0.0
06/08/2023,02:30:47,0.001,0.0,0.0,0.0
06/08/2023,02:31:47,0.001,0.0,0.0,0.0
06/08/2023,02:32:48,0.001,0.0,0.0,0.0
06/08/2023,02:33:48,0.000,0.0,0.0,0.0
06/08/2023,02:34:47,0.002,0.0,0.0,0.0
06/08/2023,02:35:48,0.001,0.0,0.0,0.0
06/08/2023,02:36:47,0.002,0.0,0.0,0.0
06/08/2023,02:37:47,0.001,0.0,0.0,0.0
06/08/2023,02:38:47,0.001,0.0,0.0,0.0
06/08/2023,02:39:47,0.000,0.0,0.0,0.0
06/08/2023,02:40:47,0.001,0.0,0.0,0.0
06/08/2023,02:41:47,0.002,0.0,0.0,0.0
06/08/2023,02:42:47,0.001,0.0,0.0,0.0
06/08/2023,02:43:47,0.001,0.0,0.0,0.0
06/08/2023,02:44:48,-0.000,0.0,0.0,0.0
06/08/2023,02:45:48,0.001,0.0,0.0,0.0
06/08/2023,02:46:48,0.000,0.0,0.0,0.0
06/08/2023,02:47:47,0.001,0.0,0.0,0.0
06/08/2023,02:48:48,0.001,0.0,0.0,0.0
06/08/2023,02:49:47,0.001,0.0,0.0,0.0
06/08/2023,02:50:46,0.001,0.0,0.0,0.0
06/08/2023,02:51:45,0.001,0.0,0.0,0.0
06/08/2023,02:52:48,0.000,0.0,0.0,0.0
06/08/2023,02:53:47,0.002,0.0,0.0,0.0
06/08/2023,02:54:47,0.001,0.0,0.0,0.0
06/08/2023,02:55:47,0.001,0.0,0.0,0.0
06/08/2023,02:56:47,0.001,0.0,0.0,0.0
06/08/2023,02:57:47,-0.000,0.0,0.0,0.0
06/08/2023,02:58:47,0.002,0.0,0.0,0.0
06/08/2023,02:59:47,0.001,0.0,0.0,0.0
06/08/2023,03:00:47,0.000,0.0,0.0,0.0
06/08/2023,03:01:47,0.001,0.0,0.0,0.0
06/08/2023,03:02:47,0.001,0.0,0.0,0.0
06/08/2023,03:03:47,0.001,0.0,0.0,0.0
06/08/2023,03:04:48,0.001,0.0,0.0,0.0
06/08/2023,03:05:47,0.001,0.0,0.0,0.0
06/08/2023,03:06:47,0.001,0.0,0.0,0.0
06/08/2023,03:07:48,0.001,0.0,0.0,0.0
06/08/2023,03:08:47,0.001,0.0,0.0,0.0
06/08/2023,03:09:48,0.001,0.0,0.0,0.0
06/08/2023,03:10:47,0.000,0.0,0.0,0.0
06/08/2023,03:11:49,0.001,0.0,0.0,0.0
06/08/2023,03:12:47,0.001,0.0,0.0,0.0
06/08/2023,03:13:48,0.001,0.0,0.0,0.0
06/08/2023,03:14:47,0.001,0.0,0.0,0.0
06/08/2023,03:15:48,0.001,0.0,0.0,0.0
06/08/2023,03:16:47,0.001,0.0,0.0,0.0
06/08/2023,03:17:48,0.001,0.0,0.0,0.0
06/08/2023,03:18:47,0.001,0.0,0.0,0.0
06/08/2023,03:19:47,0.001,0.0,0.0,0.0
06/08/2023,03:20:47,0.001,0.0,0.0,0.0
06/08/2023,03:21:47,0.001,0.0,0.0,0.0
06/08/2023,03:22:48,0.001,0.0,0.0,0.0
06/08/2023,03:23:48,0.001,0.0,0.0,0.0
06/08/2023,03:24:48,0.002,0.0,0.0,0.0
06/08/2023,03:25:47,0.000,0.0,0.0,0.0
06/08/2023,03:26:47,0.002,0.0,0.0,0.0
06/08/2023,03:27:47,0.000,0.0,0.0,0.0
06/08/2023,03:28:48,0.002,0.0,0.0,0.0
06/08/2023,03:29:48,0.000,0.0,0.0,0.0
06/08/2023,03:30:47,0.001,0.0,0.0,0.0
06/08/2023,03:31:47,0.001,0.0,0.0,0.0
06/08/2023,03:32:48,0.001,0.0,0.0,0.0
06/08/2023,03:33:47,0.001,0.0,0.0,0.0
06/08/2023,03:34:47,0.002,0.0,0.0,0.0
06/08/2023,03:35:46,0.001,0.0,0.0,0.0
06/08/2023,03:36:45,0.001,0.0,0.0,0.0
06/08/2023,03:37:47,0.001,0.0,0.0,0.0
06/08/2023,03:38:47,0.000,0.0,0.0,0.0
06/08/2023,03:39:48,0.001,0.0,0.0,0.0
06/08/2023,03:40:47,0.001,0.0,0.0,0.0
06/08/2023,03:41:47,0.001,0.0,0.0,0.0
06/08/2023,03:42:47,0.001,0.0,0.0,0.0
06/08/2023,03:43:48,0.001,0.0,0.0,0.0
06/08/2023,03:44:48,0.000,0.0,0.0,0.0
06/08/2023,03:45:48,0.002,0.0,0.0,0.0
06/08/2023,03:46:47,0.000,0.0,0.0,0.0
06/08/2023,03:47:47,0.001,0.0,0.0,0.0
06/08/2023,03:48:48,0.001,0.0,0.0,0.0
06/08/2023,03:49:47,0.000,0.0,0.0,0.0
06/08/2023,03:50:47,0.001,0.0,0.0,0.0
06/08/2023,03:51:47,0.001,0.0,0.0,0.0
06/08/2023,03:52:47,0.001,0.0,0.0,0.0
06/08/2023,03:53:45,0.001,0.0,0.0,0.0
06/08/2023,03:54:45,0.001,0.0,0.0,0.0
06/08/2023,03:55:47,0.002,0.0,0.0,0.0
06/08/2023,03:56:48,0.001,0.0,0.0,0.0
06/08/2023,03:57:47,0.001,0.0,0.0,0.0
06/08/2023,03:58:48,0.000,0.0,0.0,0.0
06/08/2023,03:59:48,0.000,0.0,0.0,0.0
06/08/2023,04:00:45,0.001,0.0,0.0,0.0
06/08/2023,04:01:45,0.001,0.0,0.0,0.0
06/08/2023,04:02:48,0.001,0.0,0.0,0.0
06/08/2023,04:03:47,0.001,0.0,0.0,0.0
06/08/2023,04:04:47,0.001,0.0,0.0,0.0
06/08/2023,04:05:48,0.001,0.0,0.0,0.0
06/08/2023,04:06:47,0.001,0.0,0.0,0.0
06/08/2023,04:07:47,0.001,0.0,0.0,0.0
06/08/2023,04:08:47,0.001,0.0,0.0,0.0
06/08/2023,04:09:47,0.000,0.0,0.0,0.0
06/08/2023,04:10:48,0.002,0.0,0.0,0.0
06/08/2023,04:11:47,0.001,0.0,0.0,0.0
06/08/2023,04:12:47,0.001,0.0,0.0,0.0
06/08/2023,04:13:48,0.001,0.0,0.0,0.0
06/08/2023,04:14:48,0.002,0.0,0.0,0.0
06/08/2023,04:15:48,0.002,0.0,0.0,0.0
06/08/2023,04:16:48,0.001,0.0,0.0,0.0
06/08/2023,04:17:48,0.001,0.0,0.0,0.0
06/08/2023,04:18:47,0.002,0.0,0.0,0.0
06/08/2023,04:19:47,0.002,0.0,0.0,0.0
06/08/2023,04:20:48,0.002,0.0,0.0,0.0
06/08/2023,04:21:47,0.002,0.0,0.0,0.0
06/08/2023,04:22:48,0.002,0.0,0.0,0.0
06/08/2023,04:23:47,0.003,0.0,0.0,0.0
06/08/2023,04:24:47,0.001,0.0,0.0,0.0
06/08/2023,04:25:48,0.003,0.0,0.0,0.0
06/08/2023,04:26:48,0.002,0.0,0.0,0.0
06/08/2023,04:27:48,0.002,0.0,0.0,0.0
06/08/2023,04:28:48,0.002,0.0,0.0,0.0
06/08/2023,04:29:47,0.002,0.0,0.0,0.0
06/08/2023,04:30:47,0.002,0.0,0.0,0.0
06/08/2023,04:31:47,0.002,0.0,0.0,0.0
06/08/2023,04:32:48,0.002,0.0,0.0,0.0
06/08/2023,04:33:48,0.003,0.0,0.0,0.0
06/08/2023,04:34:47,0.003,0.0,0.0,0.0
06/08/2023,04:35:48,0.002,0.0,0.0,0.0
06/08/2023,04:36:47,0.003,0.0,0.0,0.0
06/08/2023,04:37:48,0.003,0.0,0.0,0.0
06/08/2023,04:38:49,0.003,0.0,0.0,0.0
06/08/2023,04:39:47,0.003,0.0,0.0,0.0
06/08/2023,04:40:47,0.003,0.0,0.0,0.0
06/08/2023,04:41:48,0.003,0.0,0.0,0.0
06/08/2023,04:42:47,0.004,0.0,0.0,0.0
06/08/2023,04:43:47,0.004,0.0,0.0,0.0
06/08/2023,04:44:48,0.005,0.0,0.0,0.0
06/08/2023,04:45:47,0.004,0.0,0.0,0.0
06/08/2023,04:46:48,0.004,0.0,0.0,0.0
06/08/2023,04:47:47,0.004,0.0,0.0,0.0
06/08/2023,04:48:47,0.006,0.0,0.0,0.0
06/08/2023,04:49:47,0.005,0.0,0.0,0.0
06/08/2023,04:50:47,0.004,0.0,0.0,0.0
06/08/2023,04:51:48,0.006,0.0,0.0,0.0
06/08/2023,04:52:48,0.006,0.0,0.0,0.0
06/08/2023,04:53:47,0.006,0.0,0.0,0.0
06/08/2023,04:54:47,0.006,0.0,0.0,0.0
06/08/2023,04:55:48,0.007,0.0,0.0,0.0
06/08/2023,04:56:48,0.007,0.0,0.0,0.0
06/08/2023,04:57:48,0.007,0.0,0.001,0.001
06/08/2023,04:58:47,0.007,0.0,0.001,0.0
06/08/2023,04:59:47,0.008,0.0,0.001,0.0
06/08/2023,05:00:47,0.009,0.0,0.001,0.0
06/08/2023,05:01:47,0.008,0.0,0.001,0.0
06/08/2023,05:02:48,0.009,0.0,0.001,0.0
06/08/2023,05:03:48,0.010,0.0,0.001,0.0
06/08/2023,05:04:48,0.010,0.0,0.002,0.001
06/08/2023,05:05:48,0.011,0.0,0.002,0.0
06/08/2023,05:06:47,0.012,0.0,0.002,0.0
06/08/2023,05:07:45,0.011,0.0,0.002,0.0
06/08/2023,05:08:45,0.013,0.0,0.002,0.0
06/08/2023,05:09:47,0.012,0.0,0.003,0.001
06/08/2023,05:10:48,0.014,0.0,0.003,0.0
06/08/2023,05:11:47,0.013,0.0,0.003,0.0
06/08/2023,05:12:47,0.014,0.0,0.003,0.0
06/08/2023,05:13:47,0.015,0.0,0.003,0.0
06/08/2023,05:14:47,0.015,0.0,0.004,0.001
06/08/2023,05:15:45,0.015,0.0,0.004,0.0
06/08/2023,05:16:46,0.017,0.0,0.004,0.0
06/08/2023,05:17:47,0.017,0.0,0.005,0.001
06/08/2023,05:18:48,0.018,0.0,0.005,0.0
06/08/2023,05:19:47,0.019,0.0,0.005,0.0
06/08/2023,05:20:47,0.019,0.0,0.005,0.0
06/08/2023,05:21:47,0.020,0.0,0.006,0.001
06/08/2023,05:22:48,0.021,0.0,0.006,0.0
06/08/2023,05:23:47,0.022,0.0,0.006,0.0
06/08/2023,05:24:47,0.022,0.0,0.007,0.001
06/08/2023,05:25:48,0.023,0.0,0.007,0.0
06/08/2023,05:26:48,0.024,0.0,0.008,0.001
06/08/2023,05:27:48,0.026,0.0,0.008,0.0
06/08/2023,05:28:48,0.027,0.0,0.008,0.0
06/08/2023,05:29:47,0.026,0.0,0.009,0.001
06/08/2023,05:30:48,0.027,0.0,0.009,0.0
06/08/2023,05:31:48,0.028,0.0,0.01,0.001
06/08/2023,05:32:48,0.030,0.0,0.01,0.0
06/08/2023,05:33:47,0.029,0.0,0.011,0.001
06/08/2023,05:34:47,0.029,0.0,0.011,0.0
06/08/2023,05:35:48,0.030,0.0,0.012,0.001
06/08/2023,05:36:47,0.031,0.0,0.012,0.0
06/08/2023,05:37:47,0.032,0.0,0.013,0.001
06/08/2023,05:38:48,0.034,0.0,0.013,0.0
06/08/2023,05:39:47,0.036,0.0,0.014,0.001
06/08/2023,05:40:48,0.036,0.0,0.015,0.001
06/08/2023,05:41:48,0.037,0.0,0.015,0.0
06/08/2023,05:42:47,0.039,0.0,0.016,0.001
06/08/2023,05:43:47,0.040,0.0,0.016,0.0
06/08/2023,05:44:48,0.040,0.0,0.017,0.001
06/08/2023,05:45:48,0.041,0.0,0.018,0.001
06/08/2023,05:46:48,0.042,0.0,0.018,0.0
06/08/2023,05:47:47,0.044,0.0,0.019,0.001
06/08/2023,05:48:48,0.044,0.0,0.02,0.001
06/08/2023,05:49:47,0.045,0.0,0.021,0.001
06/08/2023,05:50:47,0.047,0.0,0.021,0.0
06/08/2023,05:51:47,0.047,0.0,0.022,0.001
06/08/2023,05:52:47,0.049,0.0,0.023,0.001
06/08/2023,05:53:48,0.050,0.0,0.024,0.001
06/08/2023,05:54:47,0.051,0.0,0.025,0.001
06/08/2023,05:55:47,0.053,0.0,0.025,0.0
06/08/2023,05:56:48,0.054,0.0,0.026,0.001
06/08/2023,05:57:47,0.055,0.0,0.027,0.001
06/08/2023,05:58:47,0.055,0.0,0.028,0.001
06/08/2023,05:59:48,0.058,0.0,0.029,0.001
06/08/2023,06:00:47,0.060,0.0,0.03,0.001
06/08/2023,06:01:47,0.060,0.0,0.031,0.001
06/08/2023,06:02:48,0.062,0.0,0.032,0.001
06/08/2023,06:03:48,0.063,0.0,0.033,0.001
06/08/2023,06:04:47,0.065,0.0,0.034,0.001
06/08/2023,06:05:47,0.065,0.0,0.035,0.001
06/08/2023,06:06:48,0.068,0.0,0.036,0.001
06/08/2023,06:08:16,0.070,0.0,0.038,0.002
06/08/2023,06:09:48,0.073,0.0,0.04,0.002
06/08/2023,06:10:48,0.074,0.0,0.041,0.001
06/08/2023,06:11:48,0.075,0.0,0.042,0.001
06/08/2023,06:12:48,0.077,0.0,0.044,0.002
06/08/2023,06:13:48,0.079,0.0,0.045,0.001
06/08/2023,06:14:48,0.080,0.0,0.046,0.001
06/08/2023,06:15:47,0.082,0.0,0.048,0.002
06/08/2023,06:16:47,0.084,0.0,0.049,0.001
06/08/2023,06:17:48,0.087,0.0,0.05,0.001
06/08/2023,06:18:47,0.089,0.0,0.052,0.002
06/08/2023,06:19:47,0.092,0.0,0.053,0.001
06/08/2023,06:20:48,0.094,0.0,0.055,0.002
06/08/2023,06:21:48,0.094,0.0,0.057,0.002
06/08/2023,06:22:48,0.094,0.0,0.058,0.001
06/08/2023,06:23:48,0.094,0.0,0.06,0.002
06/08/2023,06:24:48,0.093,0.0,0.061,0.001
06/08/2023,06:25:47,0.093,0.0,0.063,0.002
06/08/2023,06:26:47,0.092,0.0,0.064,0.001
06/08/2023,06:27:47,0.092,0.0,0.066,0.002
06/08/2023,06:28:48,0.091,0.0,0.067,0.001
06/08/2023,06:29:48,0.089,0.0,0.069,0.002
06/08/2023,06:30:48,0.095,0.0,0.07,0.001
06/08/2023,06:31:47,0.091,0.0,0.072,0.002
06/08/2023,06:32:48,0.096,0.0,0.073,0.001
06/08/2023,06:33:48,0.099,0.0,0.075,0.002
06/08/2023,06:34:48,0.100,0.0,0.077,0.002
06/08/2023,06:35:48,0.098,0.0,0.078,0.001
06/08/2023,06:36:48,0.100,0.0,0.08,0.002
06/08/2023,06:37:48,0.102,0.0,0.082,0.002
06/08/2023,06:38:48,0.107,0.0,0.083,0.001
06/08/2023,06:39:47,0.109,0.0,0.085,0.002
06/08/2023,06:40:47,0.112,0.0,0.087,0.002
06/08/2023,06:41:47,0.115,0.0,0.089,0.002
06/08/2023,06:42:47,0.119,0.0,0.091,0.002
06/08/2023,06:43:48,0.121,0.0,0.093,0.002
06/08/2023,06:44:48,0.125,0.0,0.095,0.002
06/08/2023,06:45:47,0.128,0.0,0.097,0.002
06/08/2023,06:46:48,0.132,0.0,0.099,0.002
06/08/2023,06:47:47,0.136,0.0,0.101,0.002
06/08/2023,06:48:48,0.143,0.0,0.104,0.003
06/08/2023,06:49:48,0.148,0.0,0.106,0.002
06/08/2023,06:50:48,0.155,0.0,0.109,0.003
06/08/2023,06:51:48,0.155,0.0,0.111,0.002
06/08/2023,06:52:47,0.158,0.0,0.114,0.003
06/08/2023,06:53:48,0.164,0.0,0.117,0.003
06/08/2023,06:54:48,0.173,0.0,0.119,0.002
06/08/2023,06:55:48,0.180,0.0,0.122,0.003
06/08/2023,06:56:48,0.190,0.0,0.125,0.003
06/08/2023,06:57:48,0.195,0.0,0.129,0.004
06/08/2023,06:58:47,0.187,0.0,0.132,0.003
06/08/2023,06:59:47,0.199,0.0,0.135,0.003
06/08/2023,07:00:48,0.199,0.0,0.138,0.003
06/08/2023,07:01:47,0.206,0.0,0.142,0.004
06/08/2023,07:02:48,0.222,1.0,0.145,0.003
06/08/2023,07:03:48,0.225,1.0,0.149,0.004
06/08/2023,07:04:48,0.230,1.0,0.153,0.004
06/08/2023,07:05:48,0.233,1.0,0.157,0.004
06/08/2023,07:06:50,0.230,1.0,0.161,0.004
06/08/2023,07:07:47,0.241,1.0,0.165,0.004
06/08/2023,07:08:47,0.232,1.0,0.169,0.004
06/08/2023,07:09:48,0.253,1.0,0.173,0.004
06/08/2023,07:10:48,0.246,1.0,0.177,0.004
06/08/2023,07:11:48,0.256,1.0,0.181,0.004
06/08/2023,07:12:48,0.257,1.0,0.185,0.004
06/08/2023,07:13:47,0.263,1.0,0.189,0.004
06/08/2023,07:14:48,0.268,1.0,0.194,0.005
06/08/2023,07:15:48,0.271,1.0,0.198,0.004
06/08/2023,07:16:48,0.269,1.0,0.203,0.005
06/08/2023,07:17:47,0.243,1.0,0.207,0.004
06/08/2023,07:18:47,0.273,1.0,0.212,0.005
06/08/2023,07:19:48,0.284,1.0,0.216,0.004
06/08/2023,07:20:48,0.297,1.0,0.221,0.005
06/08/2023,07:21:48,0.302,1.0,0.226,0.005
06/08/2023,07:22:47,0.307,1.0,0.231,0.005
06/08/2023,07:23:47,0.313,1.0,0.236,0.005
06/08/2023,07:24:46,0.310,1.0,0.241,0.005
06/08/2023,07:25:45,0.322,1.0,0.246,0.005
06/08/2023,07:26:47,0.330,1.0,0.252,0.006
06/08/2023,07:27:48,0.326,1.0,0.257,0.005
06/08/2023,07:28:48,0.341,1.0,0.263,0.006
06/08/2023,07:29:48,0.346,1.0,0.269,0.006
06/08/2023,07:30:47,0.348,1.0,0.274,0.005
06/08/2023,07:31:47,0.346,1.0,0.28,0.006
06/08/2023,07:32:48,0.358,1.0,0.286,0.006
06/08/2023,07:33:48,0.366,1.0,0.292,0.006
06/08/2023,07:34:48,0.339,1.0,0.298,0.006
06/08/2023,07:35:48,0.348,1.0,0.304,0.006
06/08/2023,07:36:48,0.382,1.0,0.31,0.006
06/08/2023,07:37:48,0.380,1.0,0.316,0.006
06/08/2023,07:38:48,0.380,1.0,0.323,0.007
06/08/2023,07:39:48,0.376,1.0,0.329,0.006
06/08/2023,07:40:48,0.386,1.0,0.335,0.006
06/08/2023,07:41:47,0.388,1.0,0.341,0.006
06/08/2023,07:42:48,0.417,1.0,0.348,0.007
06/08/2023,07:43:48,0.395,1.0,0.355,0.007
06/08/2023,07:44:48,0.372,1.0,0.361,0.006
06/08/2023,07:45:47,0.349,1.0,0.368,0.007
06/08/2023,07:46:47,0.423,1.0,0.374,0.006
06/08/2023,07:47:48,0.433,1.0,0.381,0.007
06/08/2023,07:48:48,0.447,1.0,0.388,0.007
06/08/2023,07:49:48,0.458,1.0,0.396,0.008
06/08/2023,07:50:48,0.360,1.0,0.403,0.007
06/08/2023,07:51:48,0.436,1.0,0.41,0.007
06/08/2023,07:52:45,0.383,1.0,0.416,0.006
06/08/2023,07:53:46,0.429,1.0,0.423,0.007
06/08/2023,07:54:47,0.403,1.0,0.43,0.007
06/08/2023,07:55:48,0.382,1.0,0.436,0.006
06/08/2023,07:56:49,0.405,1.0,0.443,0.007
06/08/2023,07:57:48,0.401,1.0,0.45,0.007
06/08/2023,07:58:48,0.419,1.0,0.457,0.007
06/08/2023,07:59:48,0.428,1.0,0.464,0.007
06/08/2023,08:00:48,0.422,1.0,0.471,0.007
06/08/2023,08:01:47,0.411,1.0,0.478,0.007
06/08/2023,08:02:48,0.420,1.0,0.485,0.007
06/08/2023,08:03:48,0.427,1.0,0.492,0.007
06/08/2023,08:04:48,0.466,1.0,0.5,0.008
06/08/2023,08:05:48,0.490,1.0,0.507,0.007
06/08/2023,08:06:45,0.477,1.0,0.515,0.008
06/08/2023,08:07:46,0.476,1.0,0.523,0.008
06/08/2023,08:08:48,0.481,1.0,0.531,0.008
06/08/2023,08:09:48,0.476,1.0,0.539,0.008
06/08/2023,08:10:48,0.473,1.0,0.547,0.008
06/08/2023,08:11:48,0.463,1.0,0.555,0.008
06/08/2023,08:12:48,0.460,1.0,0.563,0.008
06/08/2023,08:13:48,0.452,1.0,0.57,0.007
06/08/2023,08:14:48,0.446,1.0,0.578,0.008
06/08/2023,08:15:48,0.449,1.0,0.585,0.007
06/08/2023,08:16:48,0.448,1.0,0.593,0.008
06/08/2023,08:17:48,0.441,1.0,0.6,0.007
06/08/2023,08:18:48,0.453,1.0,0.608,0.008
06/08/2023,08:19:48,0.457,1.0,0.615,0.007
06/08/2023,08:20:48,0.466,1.0,0.623,0.008
06/08/2023,08:21:48,0.462,1.0,0.631,0.008
06/08/2023,08:22:48,0.469,1.0,0.638,0.007
06/08/2023,08:23:48,0.466,1.0,0.646,0.008
06/08/2023,08:24:48,0.470,1.0,0.654,0.008
06/08/2023,08:25:47,0.432,1.0,0.662,0.008
06/08/2023,08:26:48,0.463,1.0,0.669,0.007
06/08/2023,08:27:48,0.482,1.0,0.677,0.008
06/08/2023,08:28:48,0.473,1.0,0.685,0.008
06/08/2023,08:29:47,0.452,1.0,0.693,0.008
06/08/2023,08:30:48,0.437,1.0,0.7,0.007
06/08/2023,08:31:48,0.438,1.0,0.707,0.007
06/08/2023,08:32:48,0.419,1.0,0.714,0.007
06/08/2023,08:33:47,0.433,1.0,0.721,0.007
06/08/2023,08:34:47,0.447,1.0,0.729,0.008
06/08/2023,08:35:48,0.442,1.0,0.736,0.007
06/08/2023,08:36:48,0.463,1.0,0.744,0.008
06/08/2023,08:37:48,0.454,1.0,0.751,0.007
06/08/2023,08:38:47,0.463,1.0,0.759,0.008
06/08/2023,08:39:47,0.449,1.0,0.767,0.008
06/08/2023,08:40:48,0.437,1.0,0.774,0.007
06/08/2023,08:41:48,0.431,1.0,0.781,0.007
06/08/2023,08:42:48,0.439,1.0,0.789,0.008
06/08/2023,08:43:47,0.446,1.0,0.796,0.007
06/08/2023,08:44:48,0.464,1.0,0.804,0.008
06/08/2023,08:45:48,0.470,1.0,0.811,0.007
06/08/2023,08:46:48,0.481,1.0,0.819,0.008
06/08/2023,08:47:48,0.488,1.0,0.827,0.008
06/08/2023,08:48:48,0.479,1.0,0.835,0.008
06/08/2023,08:49:48,0.475,1.0,0.843,0.008
06/08/2023,08:50:48,0.468,1.0,0.851,0.008
06/08/2023,08:51:48,0.502,1.0,0.859,0.008
06/08/2023,08:52:48,0.540,1.0,0.868,0.009
06/08/2023,08:53:48,0.589,1.0,0.878,0.01
06/08/2023,08:54:48,0.604,1.0,0.888,0.01
06/08/2023,08:55:48,0.576,1.0,0.898,0.01
06/08/2023,08:56:48,0.548,1.0,0.907,0.009
06/08/2023,08:57:48,0.541,1.0,0.916,0.009
06/08/2023,08:58:48,0.541,1.0,0.925,0.009
06/08/2023,08:59:48,0.593,1.0,0.934,0.009
06/08/2023,09:00:48,0.635,1.0,0.945,0.011
06/08/2023,09:01:48,0.655,2.0,0.955,0.01
06/08/2023,09:02:48,0.700,2.0,0.967,0.012
06/08/2023,09:03:48,0.664,2.0,0.978,0.011
06/08/2023,09:04:48,0.598,1.0,0.988,0.01
06/08/2023,09:05:48,0.617,1.0,0.998,0.01
06/08/2023,09:06:48,0.665,2.0,1.009,0.011
06/08/2023,09:07:48,0.698,2.0,1.021,0.012
06/08/2023,09:08:48,0.717,2.0,1.033,0.012
06/08/2023,09:09:50,0.759,2.0,1.045,0.012
06/08/2023,09:10:48,0.723,2.0,1.057,0.012
06/08/2023,09:11:48,0.759,2.0,1.069,0.012
06/08/2023,09:12:48,0.770,2.0,1.082,0.013
06/08/2023,09:13:48,0.756,2.0,1.095,0.013
06/08/2023,09:14:48,0.722,2.0,1.107,0.012
06/08/2023,09:15:48,0.711,2.0,1.119,0.012
06/08/2023,09:16:48,0.747,2.0,1.132,0.013
06/08/2023,09:17:48,0.776,2.0,1.144,0.012
06/08/2023,09:18:48,0.764,2.0,1.157,0.013
06/08/2023,09:19:48,0.764,2.0,1.17,0.013
06/08/2023,09:20:48,0.791,2.0,1.183,0.013
06/08/2023,09:21:48,0.726,2.0,1.196,0.013
06/08/2023,09:22:48,0.668,2.0,1.208,0.012
06/08/2023,09:23:46,0.631,1.0,1.218,0.01
06/08/2023,09:24:46,0.588,1.0,1.228,0.01
06/08/2023,09:25:48,0.533,1.0,1.237,0.009
06/08/2023,09:26:48,0.503,1.0,1.246,0.009
06/08/2023,09:27:48,0.504,1.0,1.254,0.008
06/08/2023,09:28:48,0.491,1.0,1.263,0.009
06/08/2023,09:29:48,0.479,1.0,1.271,0.008
06/08/2023,09:30:48,0.517,1.0,1.279,0.008
06/08/2023,09:31:48,0.575,1.0,1.288,0.009
06/08/2023,09:32:48,0.587,1.0,1.298,0.01
06/08/2023,09:33:48,0.606,1.0,1.308,0.01
06/08/2023,09:34:47,0.674,2.0,1.318,0.01
06/08/2023,09:35:49,0.736,2.0,1.33,0.012
06/08/2023,09:36:48,0.745,2.0,1.343,0.013
06/08/2023,09:37:48,0.729,2.0,1.355,0.012
06/08/2023,09:38:48,0.704,2.0,1.367,0.012
06/08/2023,09:39:48,0.699,2.0,1.378,0.011
06/08/2023,09:40:48,0.707,2.0,1.39,0.012
06/08/2023,09:41:48,0.703,2.0,1.402,0.012
06/08/2023,09:42:48,0.723,2.0,1.414,0.012
06/08/2023,09:43:48,0.770,2.0,1.426,0.012
06/08/2023,09:44:49,0.795,2.0,1.439,0.013
06/08/2023,09:45:48,0.726,2.0,1.452,0.013
06/08/2023,09:46:48,0.668,2.0,1.463,0.011
06/08/2023,09:47:48,0.612,1.0,1.474,0.011
06/08/2023,09:48:48,0.579,1.0,1.484,0.01
06/08/2023,09:49:48,0.568,1.0,1.493,0.009
06/08/2023,09:50:48,0.582,1.0,1.503,0.01
06/08/2023,09:51:48,0.609,1.0,1.513,0.01
06/08/2023,09:52:48,0.625,1.0,1.523,0.01
06/08/2023,09:53:48,0.629,1.0,1.534,0.011
06/08/2023,09:54:48,0.692,2.0,1.545,0.011
06/08/2023,09:55:48,0.741,2.0,1.557,0.012
06/08/2023,09:56:48,0.768,2.0,1.569,0.012
06/08/2023,09:57:48,0.790,2.0,1.582,0.013
06/08/2023,09:58:48,0.771,2.0,1.595,0.013